Regional Weather Roundup
Issued by NWS Cleveland, OH

Home | Current Version | Previous Version | Text Only | Print | Product List | Glossary On
Versions: 1 2 3 4 5 6 7 8 9 10 11 12 13 14 15 16 17 18 19 20 21 22 23 24 25 26 27 28 29 30 31 32 33 34 35 36 37 38 39 40 41 42 43 44 45 46 47 48 49 50
000
ASUS41 KCLE 291810
RWRCLE
OHIO REGIONAL WEATHER ROUNDUP
NATIONAL WEATHER SERVICE CLEVELAND, OH
200 PM EDT SUN MAR 29 2015

NOTE: "FAIR" INDICATES FEW OR NO CLOUDS BELOW 12,000 FEET WITH NO
SIGNIFICANT WEATHER AND/OR OBSTRUCTIONS TO VISIBILITY.

OHZ001>008-015>018-024>027-034-035-043-044-291900-
   NORTHWEST OHIO

CITY           SKY/WX    TMP DP  RH WIND       PRES   REMARKS
DEFIANCE       PTSUNNY   41  21  44 S16G29    30.10F
FINDLAY        MOSUNNY   44  20  38 S23G30    30.13F
TOLEDO EXPRESS PTSUNNY   41  17  38 S16G30    30.09F
TOLEDO EXEC    MOSUNNY   43  17  35 S21G29    30.12F
LIMA           MOSUNNY   43  19  38 S23       30.12F
$$

OHZ009>014-019>023-028>033-038-089-291900-
   NORTHEAST OHIO

CITY           SKY/WX    TMP DP  RH WIND       PRES   REMARKS
CLE-HOPKINS    PTSUNNY   41  17  38 S15G24    30.22F
CLE-LAKEFRONT  PTSUNNY   43  14  31 S18G24    30.18F
CUY CO. ARPT   PTSUNNY   43  18  36 S15G25    30.20F
LORAIN-ELYRIA  SUNNY     40  18  41 SW15G26   30.19F
ASHTABULA      SUNNY     39  15  37 SW18G28   30.21F
AKRON-CANTON   MOSUNNY   41  15  35 S14G23    30.22F
WOOSTER        SUNNY     38  17  42 S14G22    30.21F
MANSFIELD      SUNNY     38  17  42 S22G30    30.19F
YOUNGSTOWN     MOSUNNY   40  14  34 S13       30.22F
$$

OHZ042-051>053-060>062-070>072-077>081-291900-
  SOUTHWEST OHIO

CITY           SKY/WX    TMP DP  RH WIND       PRES   REMARKS
CINC-COVINGTON PTSUNNY   47  14  26 S18G26    30.20F
CINC-LUNKEN    FAIR      47  17  30 S16G24    30.24F
HAMILTON       MOSUNNY   48  14  25 S9G20     30.21F
DAYTON         PTSUNNY   45  16  31 S21G29    30.18F
WRIGHT-PAT AFB SUNNY     45  15  30 S16G24    30.18F
DAYTON GENERAL SUNNY     42  15  33 S18G24    30.19F
WILMINGTON     SUNNY     42  19  39 S18       30.21F
$$

OHZ036-037-039>041-045>050-054>059-063>069-073>076-082>088-291900-
  CENTRAL AND SOUTHEAST OHIO

CITY           SKY/WX    TMP DP  RH WIND       PRES   REMARKS
COLUMBUS       PTSUNNY   39  13  34 S15G22    30.25F
OSU AIRPORT    MOSUNNY   41  13  31 S17G24    30.23F
BOLTON FIELD   SUNNY     41  18  38 SE17      30.24F
RICKENBACK AFB MOSUNNY   41  13  32 S13G21    30.25F
NEWARK         MOSUNNY   42  14  32 S12G21    30.25F
MARION         MOSUNNY   40  14  34 S20       30.20F
LANCASTER      MOSUNNY   44  13  28 S13G21    30.26F
ZANESVILLE     MOSUNNY   41  11  29 SW9G21    30.26F
NEW PHILLY     SUNNY     42  12  29 S15G22    30.27F
$$


USA.gov is the U.S. government's official web portal to all federal, state and local government web resources and services.